Погода в Шумихе

Погода в Шумихе : погода сейчас, прогноз погоды и архив. Всё, что Вы хотите узнать о погоде в Шумихе!

Хотите узнать прогноз погоды в Шумихе? Тогда Вам сюда: Погода в Шумихе

Поиск расширенной информации на нашем сайте:

Другие новости

Новости СМИ2

Главная страница сайта

Новости сайта

03.07.2017

Напоминаем, что на нашем специализированном сайте Метеоцентр.Азия вы можете получить высокодетализированные автоматические прогнозы погоды по пунктам России, СНГ и мира в авиационном формате (включающие направление и скорость ветра, видимость, явления погоды, количество и форму облачности, нижнюю и верхнюю границу облачности).


Погода в Шумихе - сегодня

Время (UTC), дата Ветер
(°,м/с) 
Видим.   Явления Облачность Т
(°С)
Тd
(°С)
f(%) Тe
(°С)
Pmin
(гПа)
dP
(гПа)
Po
(мм)
O2
(г/м3)
Тmin Tmax R s Состояние
почвы
06 17.06.18 310 (СЗ) 20000 м  в посл. час ливневой дождь  8/8 600 м кучево-дожд. 
[Cb cap]
+11.4 +6.7 73 +11  1005.9  -0.7  739  285           
09 17.06.18 030 (СВ) 20000 м    8/8 600 м кучево-дожд. 
[Cb cap]
+12.4 +5.6 63 +12  1006  0.2  739  284           
12 17.06.18 020 (С) 20000 м    8/8 600 м кучево-дожд. 
[Cb cap]
+16.1 +2.7 41 +17  1005.4  -0.4  738  281           
18 17.06.18 260 (З) 20000 м    3/3 600 м 
[Sc]
+7.3 +3.7 78 +8  1006.9  0.2  739  289           
21 17.06.18 250 (З) 20000 м    8/0 средняя, верхняя 
[Ac trans|Ci sp]
+5.4 +2.8 83 +6  1005.8  -1.2  738  291           
00 18.06.18 270 (З) 4000 м  слаб. дождь  10/0 средняя 
[As op]
+8.9 +4.7 75 +9  1004  -1.5  737  287           
06 18.06.18 310 (СЗ) 20000 м  в посл. час дождь  10/10 600 м 
[Sc]
+13.5 +11 85 +16  1000.7  -0.6  735  280           
09 18.06.18 300 (СЗ) 5{10}  20000 м    9/5 600 м кучево-дожд., верхняя 
[Cb cap|Ci sp]
+16.8 +11.6 71 +21  1000.4  0.1  735  277           
18 18.06.18 300 (СЗ) 20000 м  {ливн. осадки}  3/3 600 м 
[Sc]
+11.1 +8.9 86 +11  1002.6  0.5  736  283           
21 18.06.18 310 (СЗ) 20000 м    ясно 
+8.7 +7.7 93 +10  1002.6  -0.2  736  286           
00 19.06.18 320 (СЗ) 0500 м  туман  ясно 
+10.4 +9.6 95 +12  1002.4  736  284           
06 19.06.18 330 (СЗ) 20000 м  {туман}  8/6 600 м кучево-дожд., верхняя 
[Cb cap|Ci fib]
+18.4 +9.7 57 +20  1001.8  -0.3  736  276           
18 19.06.18 240 (ЮЗ) 20000 м    9/8 600 м кучево-дожд., средняя 
[Cb cap|Ac trans]
+12.9 +9.9 82 +14  1003.1  0.2  737  282           
21 19.06.18 280 (З) 20000 м    4/0 средняя, верхняя 
[Ac trans|Ci sp]
+13.7 +11 84 +17  1002.8  -0.3  736  280           
00 20.06.18 310 (СЗ) 20000 м    5/0 верхняя 
[Ci]
+12.5 +9.7 83 +14  1003.6  0.7  737  282           
06 20.06.18 290 (З) 20000 м    3/3 600 м верхняя 
[Cu med, cong|Ci sp]
+21.5 +9.2 45 +22  1003.2  -0.5  737  274           
09 20.06.18 320 (СЗ) 20000 м  {ливн. осадки}  6/6 600 м кучево-дожд. 
[Cb cap]
+24.1 +4.2 27 +24  1002.2  -0.9  737  272           
12 20.06.18 260 (З) 20000 м  {ливн. осадки}  9/4 600 м кучево-дожд., верхняя 
[Cb cap|Ci sp]
+26.2 +2.5 21 +26  1001.1  -0.9  736  270           
18 20.06.18 200 (Ю) 20000 м    6/3 600 м средняя, верхняя 
[Sc|Ac trans|Ci sp]
+19.3 +6.2 42 +20  998.9  -1.4  734  275           
21 20.06.18 230 (ЮЗ) 20000 м    8/4 600 м средняя, верхняя 
[Sc|Ac trans|Ci sp]
+17.3 +8.7 57 +18  997.4  -1.7  733  276           
00 21.06.18 260 (З) 4000 м  слаб. дождь  10/10 600 м 
[Sc]
+15.4 +13.3 87 +22  996.5  -1  732  276           
06 21.06.18 300 (СЗ) 4{11}  20000 м    5/5 1000 м 
[Cu med, cong]
+18.9 +6.6 45 +19  997.3  0.1  733  275           
21 21.06.18 210 (ЮЗ) 20000 м    6/3 600 м кучево-дожд., средняя 
[Cb cap|Ac trans]
+9.5 +6.7 83 +10  997.4  -1.4  732  284           
00 22.06.18 250 (З) 20000 м  {ливн. осадки}  9/8 600 м кучево-дожд., средняя 
[Cb cap|Ac trans]
+10.3 +8 86 +10  997.1  -0.3  732  283           
06 22.06.18 280 (З) 20000 м    9/9 600 м кучево-дожд. 
[Cb cap]
+14.8 +7.3 61 +15  996.4  0.1  732  278           
Время (UTC), дата Ветер
(°,м/с) 
Видим.   Явления Облачность Т
(°С)
Тd
(°С)
f(%) Тe
(°С)
Pmin
(гПа)
dP
(гПа)
Po
(мм)
O2
(г/м3)
Тmin Tmax R s Состояние
почвы

Для получения пояснительной информации подведите курсор к названию столбца.

ПОГОДА в Шумихе - архив

Всё, что Вы хотите узнать о погоде в Шумихе - удобно и подробно!

Выберите нужную дату (начиная с 1 января 2015* года) и нажмите кнопку "Найти".
Будут отображены архивные сводки погоды по пункту Шумиха, начиная с указанной даты.


Отображать данные в формате CSV (для использования в таблицах Excel)


Внимание! Наш архив погоды предназначен исключительно для личного некоммерческого использования в познавательных целях. Если Вам необходимы официальные справки о состоянии погоды (для производственных, юридических, коммерческих и т.п. целей), обращайтесь в органы Росгидромета.

*Примечание: данная дата относится к архиву по метеостанциям СССР (Россия, СНГ, Балтия).
Архив по метеостанциям Зарубежной Европы и Азии (кроме Китая) хранится 10 дней, по другим регионам земного шара (Китай, Африка, Америка, Австралия, Океания) - 1 день.

Шумиха - район местоположения метеостанции


Название, широта, долгота, высота метеостанции:
Шумиха 55.2°ш. 63.3°д. 178 м над ур. моря [Российская Федерация]

Дополнительная информация

В oтличие oт бoльшинства пoгoдных сайтoв мы публикуем пoдрoбную метеoинфoрмацию в детальнoм прoфессиoнальнoм фoрмате.

Характеристики температуры и влажнoсти вoздуха измеряются на высoте 2 м в тени вдали oт зданий и деревьев.
Скoрoсть ветра измеряется на высoте 10 м (на урoвне рoста челoвека скoрoсть ветра ниже в 1.5-2 раза). Если метеoстанция нахoдится в гoрoде или в лесу, тo скoрoсть ветра занижена на 2-4 м/с пo сравнению с oткрытым местoм. Скoрoсть ветра над акватoриями крупных рек и oзёр, а также на вершинах хoлмoв на 2-5 м/с выше, чем в oбычных услoвиях.
Атмoсфернoе давление в разных тoчках местнoсти мoжет значительнo oтличаться oт давления на метеoстанции, в зависимoсти oт услoвий рельефа (при пoдъёме на 10 м давление пoнижается примернo на 1 мм рт.ст.).